Theta_e
334 338 338 341 338 337 336 335 338 342 341 341 340 338 338 334 332 331 329 327 325 324
335 336 340 338 338 337 337 338 340 343 340 339 338 336 333 332 331 330 328 327 326 325
339 344 342 339 336 338 339 339 339 340 339 337 335 334 332 330 330 328 327 327 326 325
342 345 344 340 339 340 341 340 340 338 336 334 333 332 330 328 329 328 327 327 327 326
342 345 342 341 341 340 339 338 338 336 335 334 332 330 329 327 328 326 325 324 326 325
339 338 337 336 338 337 334 333 333 334 333 332 331 329 330 330 328 327 326 325 323 323
338 337 336 333 332 333 334 329 329 328 330 332 332 331 332 329 327 326 326 323 322 321
336 335 332 331 329 330 328 328 329 331 330 327 327 326 327 328 326 325 321 320 320 321
333 331 329 329 328 329 327 328 330 327 325 322 320 306 312 322 323 323 323 318 321 323
331 330 329 329 328 326 326 329 328 327 322 317 312 306 310 316 323 320 321 322 321 322
329 328 328 326 327 328 328 326 329 325 321 316 315 306 309 317 323 320 320 320 322 319
327 325 328 327 328 328 324 325 325 324 319 317 315 306 309 320 322 320 319 322 319 319
329 328 327 328 327 324 325 326 327 323 322 314 315 303 305 317 320 319 319 319 316 302
328 328 328 328 324 324 324 325 323 322 323 319 315 310 303 308 319 317 318 317 316 311
Wind_Speed
11 7 5 8 8 7 6 6 7 6 6 6 6 5 5 4 4 6 5 6 4 3
8 8 7 9 9 7 7 6 7 8 7 6 6 7 7 5 5 5 4 5 5 3
8 8 11 12 10 9 8 7 7 8 7 7 7 7 7 5 5 6 4 4 5 3
8 12 12 11 9 9 9 8 9 8 7 8 8 7 6 5 6 6 6 4 5 5
7 11 11 10 10 9 10 8 9 8 9 8 7 7 7 7 6 7 6 6 6 5
9 11 12 10 11 12 10 9 8 8 7 7 7 7 7 6 6 6 7 7 6 6
12 12 11 7 8 9 7 8 7 7 6 7 6 5 5 5 4 5 5 6 6 5
11 11 9 8 8 8 8 7 8 8 9 8 7 4 5 4 4 5 6 5 6 5
12 10 8 8 8 8 8 8 9 10 10 8 6 5 7 6 5 5 5 5 4 4
11 10 8 8 10 8 7 7 9 10 10 8 5 6 4 5 5 5 5 4 4 3
11 10 9 9 9 7 7 7 9 9 8 7 4 5 4 9 6 5 5 5 5 4
12 10 10 10 9 6 8 8 8 8 7 7 4 3 5 8 5 5 5 4 4 2
13 12 11 10 9 4 6 8 8 6 7 8 5 5 8 6 4 5 4 4 4 9
13 12 11 9 6 6 7 9 8 8 6 6 5 3 4 5 5 4 4 4 3 3
Wind_Direction
175 175 176 160 154 151 155 154 162 161 161 166 171 162 138 133 145 154 173 186 187 144
167 162 152 142 150 153 153 166 165 160 160 162 156 137 135 141 156 169 175 196 169 144
164 156 154 152 155 160 161 164 150 139 153 155 135 135 140 152 172 172 183 171 152 152
169 161 154 156 158 158 153 146 143 147 130 130 138 148 140 176 185 175 175 171 168 181
150 143 139 144 139 135 138 131 138 136 143 147 153 164 157 166 169 176 184 189 168 187
115 115 119 119 126 134 129 130 135 139 153 145 160 164 174 173 176 184 187 176 172 177
114 112 112 118 110 112 123 123 117 130 140 145 131 129 153 142 142 177 168 150 155 154
113 121 122 120 123 118 116 116 113 112 95 88 90 75 93 134 154 143 123 139 150 162
119 117 121 111 109 107 115 117 118 94 101 93 83 72 73 118 116 115 129 145 150 154
121 118 116 108 114 118 119 112 103 111 102 98 104 97 75 127 121 128 133 140 151 158
122 122 112 120 125 117 113 110 112 103 104 106 100 72 104 120 112 108 121 144 154 167
134 127 122 128 124 118 108 108 110 113 114 110 107 48 125 110 108 111 110 110 88 43
134 126 133 131 126 121 118 116 115 111 111 117 112 65 74 119 113 111 111 89 87 47
134 137 140 125 123 119 111 111 116 119 114 117 113 79 63 142 133 142 126 115 102 79